Location: Oberkirch
(48.5323°N, 8.0787°E)
Time: 17:20:27
(UTC+00:00)

Meteor 2-14 Rocket - Pass Details

Date: 08 November 2025
Orbit: 937 x 957 km, 82.5° (Epoch: 10 December)

Event Time Altitude Azimuth Distance (km) Brightness Sun altitude
Rises 04:03:12 0° 194° (SSW) 3,610 7.3 -23.6°
Reaches altitude 10° 04:05:42 10° 196° (SSW) 2,666 6.6 -23.2°
Maximum altitude 04:11:48 73° 281° (W) 991 4.3 -22.2°
Drops below altitude 10° 04:17:54 10° 7° (N) 2,670 6.8 -21.2°
Sets 04:20:24 0° 9° (N) 3,617 7.6 -20.8°
